Location: Flotzheim
(48.8375°N, 10.8136°E)
Time: 03:39:14
(UTC+00:00)

Cosmos 1777 Rocket - Pass Details

Date: 23 January 2021
Orbit: 758 x 776 km, 74.0° (Epoch: 26 February)

Event Time Altitude Azimuth Distance (km) Brightness Sun altitude
Rises 17:02:37 0° 205° (SSW) 3,228 7.9 -10.2°
Reaches altitude 10° 17:04:59 10° 207° (SSW) 2,309 7.2 -10.6°
Maximum altitude 17:10:14 78° 293° (WNW) 796 4.2 -11.4°
Drops below altitude 10° 17:15:33 10° 21° (NNE) 2,334 6.2 -12.3°
Enters shadow 17:17:25 - 23° (NNE) 3,056 6.8 -12.6°
